{"data":{"norad_id":44927,"epoch":"2026-05-24T22:29:41.169120Z","epoch_age_seconds":79699,"freshness":"FRESH","line1":"1 44927U 20001P   26144.93728205  .00090577  00000+0  96813-3 0  9999","line2":"2 44927  53.0425 319.6095 0001180 346.0382  14.0599 15.63171070351970","mean_motion":15.6317107,"eccentricity":0.000118,"inclination_deg":53.0425,"raan_deg":319.6095,"arg_perigee_deg":346.0382,"mean_anomaly_deg":14.0599,"bstar":0.00096813,"rev_number":35197,"period_min":92.120435673109,"perigee_km":377.70657967867,"apogee_km":379.30114692241,"semimajor_km":6756.6408633005,"source":"CELESTRAK","updated_at":"2026-05-25T13:38:16.375347Z"}}